AirNav   ATP
 
 379 users online  

K91 Horton Municipal Airport
Horton, Kansas, USA

GOING TO HORTON?


FAA INFORMATION EFFECTIVE 06 DECEMBER 2018

Location

FAA Identifier: K91
Lat/Long: 39-40-45.0070N / 095-32-00.9290W
39-40.750117N / 095-32.015483W
39.6791686 / -95.5335914
(estimated)
Elevation: 1134 ft. / 346 m (estimated)
Variation: 06E (1985)
From city: 1 mile NW of HORTON, KS
Time zone: UTC -6 (UTC -5 during Daylight Saving Time)
Zip code: 66439

Airport Operations

Airport use: Open to the public
Activation date: 07/1949
Control tower: no
ARTCC: KANSAS CITY CENTER
FSS: WICHITA FLIGHT SERVICE STATION
NOTAMs facility: ICT (NOTAM-D service available)
Attendance: UNATNDD
FOR ARPT ATTENDANT CALL 785-486-2681/2694.
Wind indicator: lighted
Segmented circle: yes

Airport Communications

CTAF: 122.9
WX AWOS-3 at K59 (18 nm E): 123.675 (913-367-1449)
WX AWOS-3PT at K83 (18 nm NW): 118.475 (785-284-2201)

Nearby radio navigation aids

VOR radial/distance  VOR name  Freq  Var
RBAr202/11.5ROBINSON VOR/DME108.2004E
TOPr356/32.5TOPEKA VORTAC117.8005E
STJr231/32.7ST JOSEPH VORTAC115.5008E

 
NDB name  Hdg/Dist  Freq  Var  ID
AMAZON243/31.323304EAZN .- --.. -.

Airport Services

Parking: tiedowns

Runway Information

Runway 17/35

Dimensions: 2223 x 100 ft. / 678 x 30 m
Surface: turf, in good condition
Runway edge markings: 17/35 BOUNDARY MARKED BY 3 X 5 YELLOW CONC PADS.
RUNWAY 17  RUNWAY 35
Traffic pattern: leftleft
Obstructions: 5 ft. fence, marked, 5 ft. from runway, 1:1 slope to clear
FENCE OBSTN MKD WITH 4 X 4 YELLOW & BLACK STRIPED BOARD.
5 ft. brush, 32 ft. from runway, 32 ft. right of centerline, 6:1 slope to clear
FENCE OBSTN MKD WITH 4 X 4 YELLOW & BLACK STRIPED BOARD.

Runway 15/33

Dimensions: 1636 x 100 ft. / 499 x 30 m
Surface: turf, in good condition
Runway edge markings: 15/33 BOUNDARY MARKED BY 3 X 5 YELLOW CONC PADS.
RUNWAY 15  RUNWAY 33
Traffic pattern: leftleft
Obstructions: 13 ft. road, 237 ft. from runway, 18:1 slope to clear
+5 FENCE 212' FROM THLD.
4 ft. fence, marked, 15 ft. from runway, 3:1 slope to clear
FENCE OBSTN MKD WITH YELLOW & BLACK STRIPED BOARD.

Airport Ownership and Management from official FAA records

Ownership: Publicly-owned
Owner: CITY OF HORTON
PO BOX 30
HORTON, KS 66439
Phone 785-486-2681
Manager: N. A.
202 E. 8TH STREET
HORTON, KS 66439
Phone 785-486-2681
KIM CLAUSEN - CITY ADMINISTRATOR.

Airport Operational Statistics

Aircraft operations: 100/year *
100% transient general aviation
* for 12-month period ending 31 August 2017

Additional Remarks

NO SNOW REMOVAL WINTER MONTHS.
NO PUBLIC PHONE OR FACILITIES AT ARPT.
+150 FT UNLGTD ANT ON WTR TWR 3684 FT SE OF AER 33.
TIEDOWN AREA & TWY UNMKD; MINIMAL MAINT; VERY ROUGH

Instrument Procedures

There are no published instrument procedures at K91.

Some nearby airports with instrument procedures:

K59 - Amelia Earhart Airport (18 nm E)
KFNB - Brenner Field Airport (24 nm N)
KSTJ - Rosecrans Memorial Airport (29 nm E)
KFLV - Sherman Army Airfield (34 nm SE)
KTOP - Philip Billard Municipal Airport (37 nm S)
 
Loc | Ops | Rwys | IFR | FBO | Links
Com | Nav | Svcs | Stats | Notes

Kansas City Aviation Department
 
Area around K91 (Horton Municipal Airport)
 
Road maps at: MapQuest Bing Google
 
Aerial photo
WARNING: Photo may not be current or correct
Aerial photo of K91 (Horton Municipal Airport)
Photo taken 18-Feb-2017
looking south.

Do you have a better or more recent aerial photo of Horton Municipal Airport that you would like to share? If so, please send us your photo.

 
Sectional chart

 
Airport distance calculator
Flying to Horton Municipal Airport? Find the distance to fly.

From to K91

Sunrise and sunset
Times for 15-Dec-2018
 Local
(UTC-6)
 Zulu
(UTC)
Morning civil twilight07:0713:07
Sunrise07:3713:37
Sunset16:5822:58
Evening civil twilight17:2823:28

Current date and time
Zulu (UTC)  15-Dec-2018 07:34:52
Local (UTC-6)  15-Dec-2018 01:34:52
 
METAR
KFNB 
23nm N 
150653Z AUTO 29004KT 10SM CLR M05/M06 A3021 RMK AO2 SLP238 T10501061
KSTJ 
29nm E 
150653Z AUTO 00000KT 10SM CLR M04/M04 A3020 RMK AO2 SLP232 T10441044
KTOP 
37nm S 
150653Z AUTO 28005KT 10SM CLR M02/M07 A3019 RMK AO2 SLP230 T10171067
KLWC 
42nm S 
150652Z AUTO 32008KT 10SM CLR M05/M07 A3018 RMK AO2 SLP225 T10501072
KMCI 
43nm SE 
150653Z 03005KT 10SM CLR M02/M07 A3016 RMK AO2 SLP220 T10171072 $
KFOE 
45nm S 
150653Z AUTO 33008KT 10SM CLR M03/M07 A3018 RMK AO2 SLP227 T10331072 TSNO
TAF
KSTJ 
29nm E 
150520Z 1506/1606 35004KT P6SM SKC
NOTAMs
Click for the latest NOTAMs
NOTAMs are issued by the DoD/FAA and will open in a separate window not controlled by AirNav.

 

 
 

Would you like to see your business listed on this page?

 If your business provides an interesting product or service to pilots, flight crews, aircraft, or users of the Horton Municipal Airport, you should consider listing it here.  To start the listing process, click on the button below
 
Add a business
 

Other Pages about Horton Municipal Airport

Update a link
 
Copyright © AirNav, LLC. All rights reserved. Privacy Policy  Contact